Погода в Подбельске

Россия / Самарская область     53°36′12″N   51°47′55″E
темп.,
°C
ветер,
м/с
пор.,
м/с
влажн.,
%
обл.,
%
осадки,
мм/ч
давл.,
гПа
погр.,
м
21 июня, пн
пн2101:00+19св22901 0.0 102118
04:00+18в22875 0.0 102211
07:00+21юв12730 0.0 1023148
10:00+25юв22560 0.0 1022616
13:00+28зюз225388 0.0 10221318
16:00+29з234925 0.0 10212085
19:00+28з22620 0.0 102036
22:00+22сз117324 0.0 102111
22 июня, вт
вт2201:00+21з11800 0.0 102111
04:00+20сз11840 0.0 102211
07:00+24ссз11715 0.0 1022145
10:00+27зсз23590 0.0 1022804
13:00+30сз33510 0.0 10221781
16:00+31сз344622 0.0 10212194
19:00+28зсз126161 0.0 102023
22:00+23ссз237353 0.0 102140
23 июня, ср
ср2301:00+22зсз117017 0.0 102111
04:00+21зсз11800 0.1 102111
07:00+24зсз12720 0.0 1021160
10:00+28сз45590 0.0 1020924
13:00+31сз45480 0.6 10201897
16:00+30ссз465073 0.6 1019741
19:00+28ссз246417 0.0 1019143
22:00+21сз228588 0.9 101931
24 июня, чт
чт2401:00+20сз2286100 0.0 101915
04:00+20ссз2287100 0.0 101830
07:00+23с238129 0.0 1019233
10:00+27с34614 0.0 1018761
13:00+29ссз34520 0.0 10181540
16:00+30ссз355171 0.0 10172028
19:00+28ссв236720 0.0 1016117
22:00+22зюз338084 0.9 101743
25 июня, пт
пт2501:00+20сз229093 0.9 101615
04:00+20сз11886 0.9 101611
07:00+23з238062 0.0 1016176
10:00+27з236389 0.0 1015633
13:00+28зсз5665100 2.1 1014956
16:00+28зсз356569 3.0 1014794
19:00+26зсз367687 1.2 1012125
22:00+20з2290100 3.1 101318